Regional Weather Roundup
Issued by NWS Bismarck, ND

Home | Current Version | Previous Version | Text Only | Print | Product List | Glossary On
Versions: 1 2 3 4 5 6 7 8 9 10 11 12 13 14 15 16 17 18 19 20 21 22 23 24 25 26 27 28 29 30 31 32 33 34 35 36 37 38 39 40 41 42 43 44 45 46 47 48 49 50
000
ASUS43 KBIS 252202
RWRBIS

NWR BROADCAST TEXT
NATIONAL WEATHER SERVICE BISMARCK ND
400 PM CST SUN FEB 25 2018

NOTE: "FAIR" INDICATES FEW OR NO CLOUDS BELOW 12,000 FEET WITH NO
SIGNIFICANT WEATHER AND/OR OBSTRUCTIONS TO VISIBILITY.


CITY           SKY/WX    TMP DP  RH WIND       PRES   REMARKS
WILLISTON      FAIR      28  16  60 SW13      29.62R WCI  17
MINOT          FAIR      30  17  58 SW17      29.62S WCI  18
MINOT AFB      SUNNY     28  16  60 SW16        N/A  WCI  17
BISMARCK       FAIR      32  18  56 SW12      29.72R
DICKINSON      PTSUNNY   29  20  69 SW14      29.64R WCI  18
GARRISON         N/A     28  17  63 SW12      29.64S WCI  18
HETTINGER ARPT PTSUNNY   28  17  63 W15       29.71R WCI  16
JAMESTOWN      FAIR      29  20  69 W13       29.70R WCI  19
CARRINGTON     FAIR      28  21  74 W17       29.70R WCI  16
LINTON           N/A     30  16  55 SW13      29.76R
OAKES            N/A     27  19  74 SW12      29.78R WCI  16
TIOGA          FAIR      23  16  74 SW10      29.60S WCI  12
$$

CITY           SKY/WX    TMP DP  RH WIND       PRES   REMARKS
GRAND FORKS    FAIR      29  22  75 W9        29.68R
GRAND FORKS AF FAIR      29  20  69 W13       29.67R WCI  19
DEVILS LAKE    FAIR      27  20  75 W17       29.66R WCI  14
FARGO          FAIR      29  22  75 W16       29.73R WCI  17
CANDO          FAIR      28  19  69 W14       29.66R WCI  17
CAVALIER         N/A     28  21  74 W16       29.64R WCI  17
GWINNER          N/A     28  21  74 W16       29.77R WCI  17
ROLLA          FAIR      25  19  80 SW15      29.60R WCI  12
WALHALLA       FAIR      30  21  69 W10       29.63R
$$

CITY           SKY/WX    TMP DP  RH WIND       PRES   REMARKS
ABERDEEN       SUNNY     29  19  66 SW14      29.83R WCI  18
MOBRIDGE       SUNNY     30  19  63 SW8       29.76R
BUFFALO          N/A     28  18  66 SW17      29.65S WCI  16
RAPID CITY     MOSUNNY   33  23  66 E5        29.77S
GLASGOW        SUNNY     32  19  58 SW18      29.56F
SIDNEY         MOSUNNY   32  21  64 SW10      29.63S
WOLF POINT     SUNNY     33  19  56 SW13      29.59F
GLENDIVE       MOSUNNY   28  19  69 SW15      29.66R WCI  16
MILES CITY     SUNNY     30  21  69 SW15      29.68R WCI  19
BAKER          PTSUNNY   29  18  63 SW16      29.68R WCI  17
$$

CITY           SKY/WX    TMP DP  RH WIND       PRES   REMARKS
BILLINGS       CLOUDY    32  16  51 SW15      29.69F
GREAT FALLS    PTSUNNY   34  19  54 SW18G31   29.56F
$$




USA.gov is the U.S. government's official web portal to all federal, state and local government web resources and services.